Date String (YYYY-MM-DD hh:mm:ss) UTC,Instrument flags,absolute air pressure of the measurement (hPa),sample flow rate (lpm),inlet stack bypass flow (lpm),air temperature of the measurement (°C),ambient temperature measured by the external sensor (°C),aerosol sample conditioner tube jacket temperature (°C),OPC LED temperature (°C),internal box temperature (°C),relative humidity of the measurement (%),span deviation,mass concentration of particles derived from Lorenz-Mie calculation of OPC scattering (μg/m³),mass concentration of particles derived from Lorenz-Mie calculation of OPC scattering (μg/m³),mass concentration of particles derived from Lorenz-Mie calculation of OPC scattering (μg/m³)
DateTimeUTC,F1_M11,P_M11,Q1_M11,Q2_M11,T1_M11,T2_M11,T3_M11,T4_M11,T5_M11,U1_M11,ZSPAN_M11,X2_M11,X0_M11,X1_M11
2024-05-17 13:00:00,SystemResetWarning,0823.3,5.00,000.00,024.9,023.3,000.0,033.5,026.4,016.3,0000.0,0002.94,0006.63,0002.09
2024-05-17 13:01:00,SystemResetWarning,0823.4,5.00,000.00,024.9,023.5,000.0,033.4,026.5,016.0,0000.0,0002.97,0006.74,0002.09
2024-05-17 13:02:00,SystemResetWarning,0823.4,5.01,000.00,024.9,023.7,000.0,033.4,026.6,016.1,0000.0,0002.96,0006.72,0002.10
2024-05-17 13:03:00,SystemResetWarning,0823.4,5.00,000.00,025.0,023.9,000.0,033.3,026.7,015.7,0000.0,0002.89,0006.61,0002.09
2024-05-17 13:04:00,SystemResetWarning,0823.4,5.00,000.00,025.0,024.1,000.0,033.3,026.8,015.4,0000.0,0002.85,0006.96,0002.09
2024-05-17 13:05:00,SystemResetWarning,0823.4,4.98,000.00,025.1,024.2,000.0,033.3,026.8,016.1,0000.0,0002.85,0007.15,0002.09
2024-05-17 13:06:00,SystemResetWarning,0823.4,5.00,000.00,025.1,024.3,000.0,033.3,026.8,016.0,0000.0,0002.79,0006.95,0002.08
2024-05-17 13:07:00,SystemResetWarning,0823.4,5.01,000.00,025.1,024.4,000.0,033.3,026.9,016.0,0000.0,0002.77,0006.61,0002.08
2024-05-17 13:08:00,SystemResetWarning,0823.4,5.00,000.00,025.2,024.4,000.0,033.3,027.0,015.9,0000.0,0002.79,0006.07,0002.08
2024-05-17 13:09:00,SystemResetWarning,0823.4,5.01,000.00,025.2,024.5,000.0,033.3,027.0,015.9,0000.0,0002.77,0006.25,0002.08
2024-05-17 13:10:00,SystemResetWarning,0823.5,5.01,000.00,025.2,024.6,000.0,033.4,027.0,015.4,0000.0,0002.75,0007.14,0002.07
2024-05-17 13:11:00,SystemResetWarning,0823.4,4.98,000.00,025.3,024.6,000.0,033.4,027.1,015.6,0000.0,0002.70,0006.94,0002.06
2024-05-17 13:12:00,SystemResetWarning,0823.4,4.99,000.00,025.3,024.7,000.0,033.4,027.1,015.6,0000.0,0002.71,0006.95,0002.06
2024-05-17 13:13:00,SystemResetWarning,0823.4,5.01,000.00,025.4,024.7,000.0,033.4,027.1,015.7,0000.0,0002.66,0006.87,0002.04
2024-05-17 13:14:00,SystemResetWarning,0823.4,5.01,000.00,025.4,024.8,000.0,033.4,027.2,015.6,0000.0,0002.69,0006.92,0002.04
2024-05-17 13:15:00,SystemResetWarning,0823.4,5.00,000.00,025.4,024.8,000.0,033.5,027.2,015.6,0000.0,0002.75,0006.62,0002.05
2024-05-17 13:16:00,SystemResetWarning,0823.4,5.00,000.00,025.5,024.8,000.0,033.5,027.2,015.9,0000.0,0002.80,0006.18,0002.04
2024-05-17 13:17:00,SystemResetWarning,0823.4,4.99,000.00,025.5,024.9,000.0,033.5,027.3,015.7,0000.0,0002.88,0006.38,0002.04
2024-05-17 13:18:00,SystemResetWarning,0823.4,5.00,000.00,025.5,024.9,000.0,033.5,027.3,015.4,0000.0,0002.91,0006.52,0002.02
2024-05-17 13:19:00,SystemResetWarning,0823.4,5.00,000.00,025.6,024.9,000.0,033.6,027.3,015.6,0000.0,0002.87,0006.42,0002.02
2024-05-17 13:20:00,SystemResetWarning,0823.3,5.00,000.00,025.4,023.4,000.0,033.7,026.5,015.8,0000.0,0002.87,0006.27,0002.03
2024-05-17 13:21:00,SystemResetWarning,0823.2,5.00,000.00,025.0,021.8,000.0,033.7,025.6,016.3,0000.0,0002.92,0005.34,0002.04
2024-05-17 13:22:00,SystemResetWarning,0823.2,5.01,000.00,024.7,022.0,000.0,033.6,025.6,016.7,0000.0,0002.94,0006.04,0002.03
2024-05-17 13:23:00,SystemResetWarning,0823.3,5.01,000.00,024.7,022.4,000.0,033.5,025.8,016.6,0000.0,0002.93,0005.92,0002.02
2024-05-17 13:24:00,SystemResetWarning,0823.3,4.99,000.00,024.7,022.7,000.0,033.4,026.1,016.5,0000.0,0002.95,0005.97,0002.01
2024-05-17 13:25:00,SystemResetWarning,0823.3,5.00,000.00,024.7,023.0,000.0,033.3,026.2,016.5,0000.0,0002.96,0005.97,0002.02
2024-05-17 13:26:00,SystemResetWarning,0823.3,5.00,000.00,024.7,023.3,000.0,033.2,026.3,016.1,0000.0,0002.93,0005.97,0002.03
2024-05-17 13:27:00,SystemResetWarning,0823.3,5.01,000.00,024.8,023.5,000.0,033.2,026.4,016.0,0000.0,0002.92,0006.07,0002.02
2024-05-17 13:28:00,SystemResetWarning,0823.3,5.00,000.00,024.8,023.7,000.0,033.1,026.5,015.8,0000.0,0002.96,0006.29,0002.01
2024-05-17 13:29:00,SystemResetWarning,0823.4,5.00,000.00,024.9,023.9,000.0,033.1,026.6,016.1,0000.0,0002.88,0006.10,0002.00
2024-05-17 13:30:00,SystemResetWarning,0823.4,5.01,000.00,024.9,024.0,000.0,033.1,026.7,015.9,0000.0,0002.88,0006.51,0002.00
2024-05-17 13:31:00,SystemResetWarning,0823.4,4.98,000.00,024.9,024.1,000.0,033.1,026.7,015.9,0000.0,0002.90,0007.39,0001.99
2024-05-17 13:32:00,SystemResetWarning,0823.3,5.00,000.00,025.0,024.2,000.0,033.1,026.8,015.7,0000.0,0002.90,0007.33,0002.00
2024-05-17 13:33:00,SystemResetWarning,0823.4,5.00,000.00,025.0,024.3,000.0,033.1,026.8,016.0,0000.0,0002.92,0006.65,0002.02
2024-05-17 13:34:00,SystemResetWarning,0823.4,5.00,000.00,025.1,024.4,000.0,033.2,026.9,016.0,0000.0,0002.88,0006.56,0002.02
2024-05-17 13:35:00,SystemResetWarning,0823.4,5.01,000.00,025.1,024.5,000.0,033.2,026.9,016.2,0000.0,0002.90,0007.35,0002.03
2024-05-17 13:36:00,SystemResetWarning,0823.4,5.01,000.00,025.2,024.5,000.0,033.2,026.9,016.0,0000.0,0002.91,0007.99,0002.03
2024-05-17 13:37:00,SystemResetWarning,0823.4,5.00,000.00,025.2,024.6,000.0,033.2,027.0,016.3,0000.0,0002.89,0008.46,0002.02
2024-05-17 13:38:00,SystemResetWarning,0823.4,5.00,000.00,025.2,024.6,000.0,033.2,027.1,015.9,0000.0,0002.89,0008.33,0002.02
2024-05-17 13:39:00,SystemResetWarning,0823.3,5.00,000.00,025.3,024.7,000.0,033.3,027.1,015.5,0000.0,0002.81,0008.52,0002.04
2024-05-17 13:40:00,SystemResetWarning,0823.3,5.00,000.00,025.3,024.7,000.0,033.3,027.2,015.1,0000.0,0002.84,0008.51,0002.05
2024-05-17 13:41:00,SystemResetWarning,0823.2,5.00,000.00,025.4,024.8,000.0,033.3,027.2,015.4,0000.0,0002.90,0009.15,0002.05
2024-05-17 13:42:00,SystemResetWarning,0823.2,5.00,000.00,025.4,024.8,000.0,033.4,027.2,015.1,0000.0,0002.92,0008.75,0002.07
2024-05-17 13:43:00,SystemResetWarning,0823.2,5.00,000.00,025.4,024.9,000.0,033.4,027.3,014.9,0000.0,0002.95,0008.84,0002.07
2024-05-17 13:44:00,SystemResetWarning,0823.1,5.00,000.00,025.5,024.8,000.0,033.4,027.2,014.8,0000.0,0003.00,0009.07,0002.07
2024-05-17 13:45:00,SystemResetWarning,0823.0,4.99,000.00,025.3,023.3,000.0,033.5,026.5,014.7,0000.0,0003.09,0009.19,0002.10
2024-05-17 13:46:00,SystemResetWarning,0823.0,5.01,000.00,024.9,021.5,000.0,033.5,025.5,015.1,0000.0,0003.12,0008.83,0002.11
2024-05-17 13:47:00,SystemResetWarning,0823.0,5.01,000.00,024.6,021.8,000.0,033.5,025.5,015.3,0000.0,0003.11,0008.36,0002.10
2024-05-17 13:48:00,SystemResetWarning,0823.1,4.99,000.00,024.6,022.2,000.0,033.3,025.7,015.6,0000.0,0003.12,0008.01,0002.12
2024-05-17 13:49:00,SystemResetWarning,0823.1,5.00,000.00,024.6,022.5,000.0,033.2,026.0,015.6,0000.0,0003.11,0007.92,0002.12
2024-05-17 13:50:00,SystemResetWarning,0823.1,5.01,000.00,024.6,022.9,000.0,033.1,026.2,015.4,0000.0,0003.10,0007.54,0002.12
2024-05-17 13:51:00,SystemResetWarning,0823.1,5.00,000.00,024.6,023.2,000.0,033.1,026.3,015.8,0000.0,0003.13,0007.69,0002.12
2024-05-17 13:52:00,SystemResetWarning,0823.2,5.00,000.00,024.7,023.4,000.0,033.0,026.4,015.7,0000.0,0003.13,0007.33,0002.12
2024-05-17 13:53:00,SystemResetWarning,0823.2,4.98,000.00,024.7,023.6,000.0,033.0,026.5,015.7,0000.0,0003.13,0007.32,0002.12
2024-05-17 13:54:00,SystemResetWarning,0823.3,4.99,000.00,024.8,023.8,000.0,033.0,026.6,015.5,0000.0,0003.11,0007.30,0002.11
2024-05-17 13:55:00,SystemResetWarning,0823.3,5.01,000.00,024.8,023.9,000.0,033.0,026.6,016.0,0000.0,0003.08,0007.01,0002.10
2024-05-17 13:56:00,SystemResetWarning,0823.3,5.00,000.00,024.9,024.0,000.0,033.0,026.7,015.8,0000.0,0002.99,0006.79,0002.08
2024-05-17 13:57:00,SystemResetWarning,0823.3,5.01,000.00,024.9,024.2,000.0,033.0,026.7,015.6,0000.0,0002.90,0006.37,0002.07
2024-05-17 13:58:00,SystemResetWarning,0823.2,5.00,000.00,025.0,024.3,000.0,033.0,026.8,015.2,0000.0,0002.88,0006.05,0002.09
2024-05-17 13:59:00,SystemResetWarning,0823.2,5.00,000.00,025.0,024.3,000.0,033.0,026.8,015.4,0000.0,0002.88,0006.53,0002.09
